Temp
12 12 12 12 12 12 11 11 12 11 11 11 11 11 11 11 11 12 12 12 12 12 12 12 12 12 12 12 12 12 12 12 12 12 12 12 12 12 12 12 12 12 12
13 13 12 12 12 11 11 10 10 10 10 10 10 10 10 10 10 10 11 11 11 11 12 12 12 12 11 11 12 12 11 11 12 12 12 11 11 11 11 11 11 11 12
12 12 12 12 11 11 10 10 10 9 8 8 8 9 9 10 10 10 10 11 11 11 11 11 12 12 12 11 11 12 12 11 11 11 11 11 11 11 11 11 11 11 11
12 12 11 11 11 10 10 10 9 9 8 8 8 9 9 9 10 10 10 10 10 10 10 10 11 11 11 11 10 11 10 11 11 10 10 10 10 11 11 10 11 11 11
11 11 11 11 10 10 10 10 10 10 9 9 9 9 9 9 9 9 9 9 10 9 10 9 9 10 10 10 10 10 10 10 10 10 10 9 10 10 10 10 10 11 10
11 11 10 10 10 10 9 9 9 9 9 9 9 9 8 8 8 8 8 8 8 8 8 8 8 8 9 9 10 9 9 10 9 9 9 9 9 9 10 10 10 10 10
11 11 10 10 10 9 9 9 9 9 8 8 8 8 8 8 8 8 8 7 7 7 7 7 7 7 7 8 9 9 9 9 9 9 9 8 8 8 9 9 10 10 9
11 10 10 10 9 9 9 9 9 8 8 8 7 7 7 7 7 7 6 6 6 6 5 6 6 6 6 6 7 7 8 8 8 8 8 8 8 8 8 8 8 8 8
10 10 10 9 9 9 9 9 8 8 8 8 7 7 6 6 6 6 5 5 5 5 5 5 5 5 6 6 6 6 7 7 7 7 7 8 8 8 8 8 8 7 7
10 10 9 9 9 9 9 8 8 8 8 7 6 6 6 6 6 5 4 5 5 5 5 5 5 5 5 5 6 6 6 6 7 7 7 7 6 7 7 7 7 7 7
9 9 9 9 8 8 8 8 8 7 7 7 6 6 6 6 5 6 5 5 4 5 5 5 5 5 5 5 5 5 5 5 6 6 6 6 6 6 6 6 6 6 5
9 8 8 8 8 8 7 7 7 7 7 6 6 6 5 5 6 5 5 5 5 4 4 5 4 4 4 4 4 4 4 4 4 5 5 5 5 5 5 5 5 4 4
8 8 7 7 7 7 7 7 6 6 6 6 6 5 5 5 5 5 5 5 5 4 4 4 4 3 3 3 3 4 3 3 4 4 4 4 4 4 4 4 4 3 3
8 8 7 6 6 6 6 6 6 6 5 5 5 5 5 5 5 5 5 5 4 4 3 2 2 2 3 3 3 3 4 3 3 3 3 3 3 3 3 3 3 2 2
7 7 6 6 5 5 5 5 5 4 4 4 4 4 4 4 4 4 4 4 4 4 3 2 2 2 3 3 3 3 3 3 3 3 3 3 3 3 2 2 2 2 2
6 6 5 5 5 4 4 4 4 4 4 3 3 3 3 3 3 4 3 3 3 3 3 3 2 2 2 2 3 3 3 2 2 2 2 2 2 1 1 1 1 1 1
6 5 5 4 4 4 3 3 3 3 3 3 3 2 3 2 2 3 3 3 3 3 2 2 2 2 2 2 2 2 2 1 1 1 1 1 1 1 1 1 1 1 1
5 5 4 4 4 3 2 2 2 2 2 2 2 2 2 1 1 2 2 4 2 2 1 1 1 1 1 1 1 1 1 1 1 1 1 1 0 0 1 0 -0 0 0
5 4 3 3 3 3 2 2 1 1 0 0 0 0 0 0 0 0 1 1 2 1 0 0 1 1 1 0 0 0 0 0 0 -0 -0 -0 -0 -0 -0 -1 -1 -0 0
4 3 3 3 3 2 1 1 0 0 0 0 0 0 0 -0 -0 -0 -0 -0 1 -0 -0 0 0 0 0 -0 -0 -0 -0 -1 -1 -1 -1 -1 -1 -1 -1 -1 -1 -1 -1
3 3 3 3 2 1 0 0 -0 -0 -1 -0 -0 -0 -0 -1 -1 -1 -1 -1 -0 -0 -0 0 0 0 -0 0 -0 -1 -1 -1 -1 -1 -1 -1 -1 -1 -1 -2 -2 -2 -2
3 3 3 2 1 0 -0 -1 -1 -1 -1 -1 -1 -1 -1 -1 -1 -1 -1 -1 -1 -1 -1 -0 -0 -0 -1 -1 -1 -1 -1 -1 -2 -1 -1 -1 -2 -2 -2 -3 -3 -3 -2
2 2 2 1 1 -1 -1 -1 -2 -2 -2 -2 -2 -2 -1 -1 -2 -1 -1 -1 -1 -1 -1 -0 -1 -1 -1 -1 -1 -1 -1 -1 -1 -2 -2 -3 -3 -3 -3 -3 -4 -3 -4
2 2 1 1 0 -0 -1 -2 -2 -2 -2 -2 -2 -2 -2 -2 -2 -2 -2 -2 -1 -1 -1 -1 -2 -2 -1 -1 -1 -1 -2 -2 -2 -2 -2 -2 -3 -3 -4 -4 -5 -5 -5
1 1 1 0 -0 -1 -2 -2 -2 -2 -2 -2 -2 -2 -2 -2 -2 -2 -2 -2 -2 -1 -1 -2 -2 -2 -2 -2 -1 -1 -1 -2 -2 -2 -2 -2 -3 -3 -4 -4 -5 -5 -6
1 1 0 -0 -0 -1 -2 -2 -2 -2 -2 -2 -2 -2 -2 -2 -2 -2 -2 -2 -2 -2 -2 -2 -2 -2 -2 -2 -2 -2 -2 -2 -2 -2 -2 -3 -3 -4 -4 -5 -5 -5 -6
Height
1555 1555 1556 1556 1556 1556 1556 1555 1555 1555 1555 1556 1556 1556 1556 1556 1556 1556 1555 1555 1555 1554 1554 1553 1554 1554 1554 1552 1554 1554 1555 1554 1554 1553 1554 1555 1555 1555 1556 1557 1557 1558 1558
1553 1553 1553 1553 1553 1552 1552 1552 1551 1551 1551 1552 1553 1554 1554 1553 1553 1553 1552 1552 1552 1552 1551 1550 1549 1549 1549 1550 1551 1552 1550 1550 1550 1550 1551 1551 1552 1552 1553 1554 1555 1556 1556
1550 1550 1550 1550 1550 1550 1549 1549 1548 1548 1550 1551 1551 1550 1550 1550 1549 1549 1549 1548 1548 1547 1547 1546 1545 1545 1545 1546 1548 1547 1547 1547 1547 1548 1548 1548 1550 1550 1551 1552 1552 1554 1554
1548 1548 1548 1547 1547 1547 1547 1547 1546 1546 1547 1547 1547 1547 1547 1547 1546 1547 1546 1545 1544 1543 1543 1542 1542 1543 1542 1541 1543 1545 1544 1543 1543 1544 1545 1544 1547 1549 1549 1550 1551 1551 1551
1546 1546 1546 1545 1545 1545 1545 1544 1543 1543 1542 1543 1543 1543 1543 1543 1543 1543 1543 1542 1541 1541 1541 1540 1540 1540 1541 1539 1539 1541 1542 1540 1540 1541 1541 1537 1538 1544 1545 1546 1546 1547 1549
1543 1544 1544 1543 1543 1543 1542 1541 1541 1540 1540 1540 1539 1539 1539 1539 1539 1539 1538 1538 1538 1538 1539 1538 1538 1537 1539 1537 1536 1538 1539 1539 1538 1538 1540 1539 1538 1542 1541 1544 1543 1543 1546
1539 1540 1539 1540 1540 1540 1540 1540 1539 1538 1538 1538 1537 1536 1535 1535 1535 1535 1535 1535 1535 1535 1536 1537 1536 1536 1536 1536 1535 1534 1537 1538 1538 1537 1538 1538 1539 1540 1540 1541 1541 1542 1543
1538 1538 1537 1538 1537 1537 1536 1536 1535 1535 1535 1535 1534 1534 1533 1533 1532 1531 1532 1533 1533 1533 1535 1536 1535 1535 1535 1535 1532 1534 1533 1536 1536 1537 1537 1537 1538 1537 1538 1538 1539 1540 1540
1536 1535 1535 1535 1535 1534 1534 1533 1532 1532 1532 1531 1531 1532 1532 1530 1528 1528 1529 1529 1529 1531 1533 1535 1535 1534 1534 1533 1532 1532 1531 1534 1534 1535 1536 1535 1535 1535 1535 1535 1536 1537 1536
1533 1533 1533 1532 1532 1532 1531 1530 1529 1529 1529 1529 1529 1529 1528 1528 1529 1528 1526 1527 1527 1528 1530 1533 1534 1533 1534 1533 1532 1530 1531 1534 1531 1533 1533 1534 1535 1534 1532 1533 1534 1535 1535
1530 1530 1530 1529 1529 1529 1528 1528 1527 1527 1526 1526 1526 1526 1526 1526 1525 1525 1524 1523 1524 1526 1527 1530 1531 1531 1533 1533 1532 1530 1531 1530 1530 1531 1532 1534 1534 1535 1533 1532 1533 1534 1535
1525 1525 1525 1525 1525 1525 1525 1524 1524 1523 1523 1523 1523 1523 1523 1523 1522 1522 1522 1521 1521 1522 1524 1526 1528 1529 1531 1532 1531 1529 1529 1530 1530 1531 1531 1533 1532 1535 1531 1530 1533 1532 1532
1521 1521 1521 1520 1520 1520 1521 1520 1521 1520 1519 1519 1519 1520 1520 1520 1520 1520 1519 1517 1519 1519 1521 1523 1524 1528 1529 1530 1530 1528 1529 1529 1530 1532 1532 1531 1531 1530 1530 1530 1531 1530 1530
1516 1516 1515 1515 1516 1516 1516 1516 1516 1516 1515 1515 1516 1516 1517 1517 1517 1516 1516 1517 1516 1517 1518 1521 1524 1527 1527 1528 1527 1527 1527 1528 1530 1530 1531 1530 1530 1529 1528 1529 1529 1529 1529
1511 1510 1510 1510 1510 1510 1511 1512 1512 1513 1512 1512 1512 1512 1513 1514 1514 1514 1514 1515 1515 1513 1516 1519 1523 1524 1525 1525 1525 1525 1526 1527 1528 1529 1528 1529 1528 1527 1526 1529 1528 1528 1527
1505 1505 1504 1505 1505 1506 1507 1507 1508 1508 1507 1508 1509 1510 1510 1511 1511 1509 1511 1512 1512 1512 1515 1518 1520 1522 1523 1523 1522 1523 1523 1524 1525 1526 1525 1525 1525 1525 1526 1526 1525 1525 1524
1499 1499 1499 1499 1500 1501 1502 1503 1504 1504 1505 1504 1504 1506 1506 1509 1509 1507 1507 1509 1509 1511 1516 1517 1518 1518 1519 1519 1519 1520 1521 1522 1523 1523 1523 1523 1523 1523 1524 1524 1524 1524 1524
1493 1493 1493 1495 1496 1497 1498 1499 1499 1499 1500 1501 1503 1503 1501 1503 1502 1502 1503 1505 1506 1509 1515 1516 1515 1515 1515 1516 1516 1517 1518 1519 1520 1521 1522 1521 1522 1522 1522 1523 1523 1523 1522
1489 1489 1489 1491 1492 1493 1493 1494 1495 1496 1496 1496 1498 1498 1498 1496 1496 1497 1498 1500 1502 1507 1510 1511 1511 1511 1512 1513 1514 1515 1516 1517 1518 1519 1520 1520 1520 1521 1521 1521 1522 1521 1520
1484 1485 1486 1487 1488 1488 1489 1490 1490 1490 1490 1490 1491 1492 1492 1491 1493 1493 1495 1497 1499 1502 1504 1506 1507 1508 1509 1510 1512 1513 1513 1514 1515 1516 1517 1518 1518 1519 1520 1520 1520 1519 1519
1481 1482 1483 1484 1485 1485 1486 1486 1486 1485 1485 1484 1485 1486 1488 1488 1489 1490 1491 1493 1494 1497 1499 1502 1503 1504 1506 1507 1508 1510 1510 1511 1512 1513 1514 1515 1516 1517 1518 1518 1517 1517 1517
1477 1478 1479 1480 1481 1481 1481 1482 1482 1482 1482 1482 1480 1482 1483 1484 1486 1487 1488 1489 1491 1494 1496 1497 1499 1500 1502 1504 1505 1507 1508 1509 1510 1511 1512 1514 1515 1516 1516 1516 1516 1515 1515
1474 1474 1475 1476 1478 1477 1477 1477 1476 1477 1477 1479 1478 1478 1479 1481 1482 1484 1485 1487 1489 1491 1492 1494 1495 1497 1499 1501 1502 1503 1505 1507 1508 1510 1511 1512 1514 1514 1514 1514 1514 1514 1514
1470 1471 1472 1473 1473 1473 1472 1472 1473 1474 1474 1474 1474 1476 1477 1478 1479 1481 1483 1485 1486 1488 1489 1491 1493 1494 1497 1499 1501 1502 1503 1505 1507 1508 1509 1511 1512 1512 1512 1513 1513 1512 1512
1466 1467 1469 1469 1469 1469 1470 1470 1471 1470 1471 1472 1472 1473 1475 1476 1478 1480 1482 1484 1485 1486 1487 1489 1491 1493 1496 1498 1500 1502 1503 1505 1506 1507 1508 1509 1509 1510 1510 1510 1510 1509 1509
1463 1464 1464 1465 1465 1466 1467 1468 1468 1467 1468 1470 1470 1472 1473 1475 1477 1479 1481 1483 1484 1485 1487 1489 1491 1494 1496 1498 1499 1501 1502 1503 1504 1505 1506 1507 1507 1508 1508 1507 1507 1507 1506
Wind_Speed
7 9 10 12 12 13 13 13 14 14 13 13 12 13 15 16 17 17 17 17 17 16 14 15 14 11 12 10 13 13 14 14 15 17 17 17 16 15 14 13 12 12 11
6 8 9 10 10 11 12 13 13 13 11 11 12 13 13 13 13 14 14 15 16 16 17 18 15 13 15 15 15 14 14 13 14 16 16 15 15 13 12 10 9 9 10
8 8 9 9 10 10 11 12 12 11 8 10 11 12 14 15 15 16 18 19 21 23 21 17 20 19 16 20 16 14 15 14 13 14 16 15 12 9 8 9 7 10 7
9 9 10 10 11 11 11 11 10 9 11 12 14 14 16 16 16 17 17 16 15 14 16 16 15 16 16 15 15 13 11 14 14 13 19 20 16 5 13 12 11 10 9
9 10 11 11 11 11 11 11 11 12 12 13 14 15 16 16 16 16 16 17 17 16 14 15 15 14 14 14 13 15 14 12 10 9 11 8 5 10 13 16 13 11 12
10 11 11 11 11 11 11 11 11 12 12 12 13 14 15 15 16 16 16 16 15 14 13 13 13 13 14 12 11 8 7 7 8 8 8 7 7 8 7 8 7 8 10
10 10 10 11 11 11 11 11 11 11 12 11 11 12 14 15 16 15 15 13 11 9 9 9 10 11 12 12 12 11 12 7 6 7 6 5 4 4 5 4 4 6 7
10 10 10 11 11 11 12 12 12 12 12 11 10 10 7 10 13 14 12 10 7 5 6 5 6 6 8 8 8 10 11 12 10 7 6 5 6 5 5 4 5 7 7
10 10 11 11 12 12 12 12 12 12 12 12 10 8 4 5 5 10 12 10 8 6 5 5 6 6 6 5 6 6 7 7 7 6 5 4 4 5 5 5 7 9 10
11 11 12 12 13 13 13 13 12 12 13 12 12 12 14 13 5 4 8 11 11 10 8 8 7 7 7 6 6 6 7 10 8 5 5 7 8 10 11 10 9 8 7
12 12 13 14 14 15 15 14 14 13 13 13 12 13 13 15 17 14 8 9 14 13 11 10 9 8 8 6 5 6 6 7 11 8 6 7 8 8 8 8 6 4 6
12 12 14 14 15 16 16 16 16 15 14 14 14 15 15 13 12 16 15 10 12 14 14 12 11 10 10 9 6 6 4 4 5 9 10 8 6 7 8 7 9 5 3
13 13 15 15 16 17 17 17 17 16 15 15 15 15 15 15 15 14 14 12 10 12 11 9 9 11 12 10 8 5 3 2 2 5 6 8 7 5 4 6 7 7 5
16 16 16 16 16 17 17 17 17 17 16 15 15 15 14 14 13 12 12 12 10 10 11 9 8 10 11 11 9 6 7 6 7 6 8 5 5 4 4 4 3 5 7
17 17 17 16 16 17 17 17 17 17 15 15 14 14 13 13 12 11 9 10 11 9 12 13 12 13 11 10 9 8 8 8 8 10 9 8 7 7 5 8 5 7 6
16 16 15 15 15 16 17 17 17 16 16 15 15 13 12 12 11 10 8 9 9 8 8 15 18 13 13 12 11 10 10 10 7 6 7 4 4 2 5 7 4 5 6
15 14 13 14 15 15 16 16 16 16 16 15 15 14 12 12 11 11 10 10 7 7 10 15 19 16 13 11 10 9 8 7 7 6 4 6 4 4 4 6 5 5 6
14 15 14 15 15 14 14 15 16 16 16 15 15 16 16 21 19 20 19 17 11 10 12 14 15 13 11 9 9 8 8 7 7 6 3 5 7 5 4 6 6 6 7
15 15 14 14 13 13 14 14 15 16 16 15 19 22 27 23 19 14 13 13 12 13 15 14 13 13 12 10 9 9 8 7 7 6 8 9 7 5 8 7 6 8 8
14 14 11 11 11 11 13 14 13 15 16 17 18 21 19 20 18 17 16 15 14 15 13 13 13 12 11 11 11 10 9 9 8 11 11 11 9 9 7 7 7 7 9
15 13 9 10 10 12 14 14 15 15 15 17 19 21 22 19 16 13 15 17 17 15 14 14 13 13 13 16 12 11 10 9 11 10 10 10 10 9 7 6 7 7 6
12 10 9 9 11 13 14 16 12 13 14 16 17 15 20 16 13 14 15 16 16 14 13 13 14 14 15 14 12 11 11 13 9 7 8 7 7 7 7 5 5 6 6
12 11 10 9 11 13 12 11 12 14 15 14 13 18 16 14 14 16 15 11 11 10 10 10 11 13 13 11 10 10 9 9 8 7 7 8 7 7 6 6 8 9 8
13 11 12 13 12 12 8 10 10 9 8 9 12 13 13 12 12 11 11 9 9 8 8 10 10 8 10 9 9 8 9 9 8 6 5 5 6 6 7 8 9 10 8
13 13 13 13 12 12 7 7 8 8 6 5 6 8 9 10 12 11 9 6 6 6 7 9 10 10 10 11 10 9 8 8 5 3 3 4 5 5 7 9 9 9 9
12 11 12 16 11 10 10 10 12 8 7 5 5 7 8 9 11 13 9 6 6 8 10 11 12 11 11 10 8 6 5 4 3 2 2 2 4 4 4 5 6 6 8
Wind_Direction
272 281 278 272 273 273 276 274 272 274 280 282 275 274 278 284 285 284 283 276 268 263 267 268 274 296 300 290 271 270 265 253 245 247 247 247 243 240 241 243 242 243 243
283 285 291 292 290 290 287 291 291 281 274 277 279 286 285 285 287 285 280 276 273 269 270 270 266 271 296 295 277 263 260 261 251 246 244 243 242 237 235 237 238 245 248
288 289 291 292 292 290 291 295 294 295 289 287 285 280 284 284 283 286 285 283 276 270 271 271 269 255 253 270 275 266 257 252 242 238 238 233 222 208 222 227 235 251 252
286 292 295 292 290 291 292 294 296 281 275 274 275 278 277 278 280 281 282 284 285 281 275 275 271 263 258 256 259 267 270 245 243 245 233 221 219 231 281 268 271 273 275
291 292 290 289 289 290 289 286 284 280 276 273 272 273 275 277 279 279 279 282 283 280 277 273 269 262 255 249 253 261 256 250 245 241 234 276 246 248 246 265 266 284 277
296 297 297 295 292 292 289 290 291 288 286 282 280 277 276 277 277 277 282 285 284 278 269 261 256 256 257 252 235 234 246 245 228 238 264 279 286 264 264 265 272 273 275
296 297 296 295 295 294 293 292 292 292 289 288 284 279 275 272 271 272 275 278 281 279 266 258 256 254 251 250 240 237 234 234 249 258 264 247 232 231 233 233 230 229 220
303 300 297 295 292 291 291 291 290 290 289 288 280 282 276 271 262 260 262 264 260 257 246 248 249 246 242 237 237 228 222 226 230 244 253 254 235 211 202 191 183 190 206
299 299 294 292 292 292 291 288 287 286 286 284 273 248 254 239 262 253 246 245 253 231 263 245 244 241 242 231 217 213 207 207 205 226 243 236 207 198 200 193 187 170 190
299 299 294 292 291 290 289 288 286 284 283 280 270 258 248 252 260 255 242 232 238 238 241 246 253 251 247 240 227 211 201 196 171 156 153 154 165 142 134 144 155 171 188
292 293 293 292 291 290 288 288 286 282 278 275 268 263 258 255 251 251 258 238 238 237 238 245 248 245 241 231 203 186 191 197 185 162 156 174 205 213 218 211 189 202 253
282 287 288 286 286 287 285 283 281 279 276 272 265 258 252 250 251 245 245 250 235 236 241 244 244 236 222 207 195 181 184 184 174 204 216 242 257 264 255 258 270 281 249
289 288 286 284 284 284 282 281 280 279 275 270 264 259 255 252 251 251 247 240 226 225 232 235 225 213 210 207 193 186 203 251 234 249 273 270 285 296 263 265 272 269 287
286 286 285 284 284 282 279 278 277 274 270 266 261 258 257 254 249 245 243 235 217 210 217 206 201 204 203 215 211 225 235 253 254 259 260 281 284 291 274 261 298 308 296
282 282 282 280 279 278 278 277 276 274 269 263 257 254 252 249 245 242 241 238 223 209 207 201 200 207 214 217 224 239 259 258 247 266 255 258 268 253 263 249 277 282 284
279 278 280 279 278 279 278 276 275 272 267 260 254 247 245 246 244 240 239 233 225 223 223 215 209 208 223 230 236 246 251 258 243 242 247 250 239 279 269 287 275 313 327
274 274 276 278 278 274 270 271 272 270 265 255 246 240 244 248 254 261 265 259 236 224 239 216 209 208 218 237 245 245 237 232 240 222 242 257 252 271 264 270 279 283 277
263 269 277 276 276 272 272 276 275 268 260 254 253 245 247 262 257 254 248 239 228 222 222 219 208 213 217 226 241 241 223 225 233 233 245 252 249 240 277 267 284 279 297
252 261 263 267 268 270 273 276 276 267 261 259 256 260 272 258 237 230 225 220 217 221 222 221 218 221 230 231 233 232 226 229 224 222 199 225 193 231 271 274 284 293 292
251 259 252 260 268 273 286 277 267 266 277 275 269 276 248 247 241 234 224 224 213 215 216 219 221 223 230 232 233 228 238 238 227 210 224 229 262 267 276 267 273 276 283
244 240 252 269 275 281 279 268 266 263 263 257 264 250 237 251 235 233 229 222 221 214 218 219 222 225 229 219 231 233 234 227 215 218 218 228 250 252 250 254 273 283 292
233 236 248 265 273 283 258 278 267 272 255 263 253 237 247 237 229 229 228 230 218 219 222 226 228 222 224 230 231 230 227 213 197 201 212 223 232 239 242 241 267 290 306
234 233 237 247 277 289 266 264 266 258 255 263 254 237 246 232 215 231 228 212 212 214 220 223 221 221 223 227 221 213 196 202 209 197 206 213 212 220 234 256 270 283 295
247 242 247 239 273 291 244 250 243 253 265 257 246 234 228 232 218 217 201 205 213 213 220 222 210 206 196 203 203 200 185 182 171 171 187 207 223 237 247 255 262 279 290
243 244 247 255 274 280 242 233 225 251 256 246 219 208 210 211 209 203 201 208 214 203 191 177 177 180 178 167 163 161 160 164 173 187 211 236 236 245 252 257 264 275 287
242 248 253 250 280 268 227 229 239 234 242 243 235 217 209 212 214 204 204 217 189 164 156 157 157 156 154 155 159 166 177 184 189 206 208 238 251 262 267 264 264 269 283